CW7566 Weather Reports


time (UTC)temp
C
wind
direction
speed
KPH
gust
KPH
rain 1hr
cm
rain 24hr
cm
rain mn
cm
humidity
%
barometer
mb
20260503195645 20 247 1.6 9.7 0.00 0.00 0.00 29 1019.3
20260503194701 18 224 0.0 17.7 0.00 0.00 0.00 28 1019.8
20260503192712 18 83 11.3 19.3 0.00 0.00 0.00 22 1019.9
20260503191712 18 275 3.2 11.3 0.00 0.00 0.00 24 1020.0
20260503190707 18 66 1.6 8.0 0.00 0.00 0.00 24 1020.1
20260503185651 17 274 3.2 9.7 0.00 0.00 0.00 27 1020.1
20260503182700 15 215 4.8 11.3 0.00 0.00 0.00 31 1020.1
20260503181715 15 187 4.8 8.0 0.00 0.00 0.00 32 1020.3
20260503180702 14 236 3.2 8.0 0.00 0.00 0.00 33 1020.3
20260503175649 13 247 4.8 8.0 0.00 0.00 0.00 35 1020.4
20260503173643 13 181 1.6 4.8 0.00 0.00 0.00 36 1020.6
20260503172716 12 201 3.2 4.8 0.00 0.00 0.00 38 1020.6
20260503170654 12 282 1.6 6.4 0.00 0.00 0.00 42 1020.9
20260503150644 8 237 1.6 3.2 0.00 0.00 0.00 49 1021.6
20260503130717 5 188 0.0 8.0 0.00 0.00 0.00 67 1021.4
20260503110655 2 340 0.0 1.6 0.00 0.00 0.00 80 1020.7
20260503080657 3 325 0.0 0.0 0.00 0.00 0.00 75 1019.2
20260503072713 3 64 0.0 0.0 0.00 0.00 0.00 74 1019.0
20260503071719 3 64 0.0 0.0 0.00 0.00 0.00 74 1018.9
20260503070652 3 64 0.0 0.0 0.00 0.00 0.00 74 1018.8
20260503054652 4 3 0.0 0.0 0.00 0.00 0.00 70 1018.7
20260503053724 5 3 0.0 0.0 0.00 0.00 0.00 70 1018.7
20260503052655 5 3 0.0 0.0 0.00 0.00 0.00 69 1018.7
20260503051722 5 83 0.0 0.0 0.00 0.00 0.00 69 1018.7
20260503050657 5 83 0.0 0.0 0.00 0.00 0.00 68 1018.7
20260503045704 5 83 0.0 0.0 0.00 0.00 0.00 66 1018.7
20260503044711 5 83 0.0 0.0 0.00 0.00 0.00 65 1018.6
20260503043726 5 83 0.0 0.0 0.00 0.00 0.00 66 1018.6
20260503042716 6 83 0.0 0.0 0.00 0.00 0.00 65 1018.5
20260503041705 6 83 0.0 0.0 0.00 0.00 0.00 64 1018.4
20260503035710 6 83 0.0 0.0 0.00 0.00 0.00 66 1018.0
20260503034716 6 83 0.0 0.0 0.00 0.00 0.00 65 1018.0
20260503033712 6 83 0.0 0.0 0.00 0.00 0.00 64 1018.0
20260503032704 6 83 0.0 0.0 0.00 0.00 0.00 63 1018.1
20260503030728 6 83 0.0 0.0 0.00 0.00 0.00 62 1018.1
20260503025655 6 84 0.0 0.0 0.00 0.00 0.00 61 1018.0
20260503024723 6 83 0.0 0.0 0.00 0.00 0.00 60 1018.1
20260503023713 7 83 0.0 0.0 0.00 0.00 0.00 59 1018.0
20260503022724 7 84 0.0 4.8 0.00 0.00 0.00 58 1018.0
20260503021654 7 84 0.0 3.2 0.00 0.00 0.00 58 1017.8
20260503020702 7 84 0.0 0.0 0.00 0.00 0.00 56 1017.8
20260503015701 8 84 0.0 0.0 0.00 0.00 0.00 55 1017.6
20260503014708 8 84 0.0 0.0 0.00 0.00 0.00 55 1017.5
20260503013724 8 84 0.0 4.8 0.00 0.00 0.00 53 1017.4
20260503012657 9 148 0.0 1.6 0.00 0.00 0.00 51 1017.3
20260503011700 9 148 0.0 0.0 0.00 0.00 0.00 49 1017.1
20260503010649 10 148 0.0 0.0 0.00 0.00 0.00 48 1017.1
20260503004702 10 180 0.0 4.8 0.00 0.00 0.00 45 1016.8
20260503003711 10 186 1.6 8.0 0.00 0.00 0.00 42 1016.9
20260503002718 10 47 4.8 16.1 0.00 0.00 0.00 42 1016.5
20260503001708 11 54 1.6 9.7 0.00 0.00 0.00 41 1016.6
20260502235714 11 31 1.6 9.7 0.00 0.00 0.00 42 1016.2
20260502233657 11 33 3.2 4.8 0.00 0.00 0.00 38 1015.8
20260502231722 12 199 4.8 11.3 0.00 0.00 0.00 36 1015.5
20260502225710 12 65 0.0 22.5 0.00 0.00 0.00 35 1015.5
20260502224706 12 61 6.4 19.3 0.00 0.00 0.00 37 1015.6
20260502223657 12 18 6.4 12.9 0.00 0.00 0.00 39 1015.9
20260502220705 13 120 3.2 24.1 0.00 0.00 0.00 37 1015.5
20260502215702 13 262 1.6 8.0 0.00 0.00 0.00 35 1015.1
20260502214711 13 127 0.0 6.4 0.00 0.00 0.00 36 1014.8
20260502212655 13 150 1.6 8.0 0.00 0.00 0.00 36 1014.9
20260502211716 13 161 3.2 22.5 0.00 0.00 0.00 35 1014.7
20260502210700 15 129 6.4 16.1 0.00 0.00 0.00 33 1014.6
20260502204708 15 45 1.6 16.1 0.00 0.00 0.00 33 1014.6
20260502203715 14 80 1.6 9.7 0.00 0.00 0.00 34 1014.5
20260502202659 14 85 3.2 16.1 0.00 0.00 0.00 33 1014.7
20260502201711 15 54 1.6 6.4 0.00 0.00 0.00 32 1014.5